Tracking 18032 objects as of 25-March-2017
HD Live streaming from Space Station
objects crossing your sky now

CRRES DEB (CANISTER)

Track CRRES DEB (CANISTER) now!


NORAD ID: 21590
Int'l Code: 1990-065F
Perigee: 348.7 km
Apogee: 31,235.4 km
Inclination: 20.3 °
Period: 547.3 minutes
Semi major axis: 22163 km
RCS: 0.1267 m2 (medium)
Launch date: July 25, 1990
Source: United States (US)
Launch site: AIR FORCE EASTERN TEST RANGE (AFETR)

Note: This is SATELLITE DEBRIS
Your satellite tracking list
Your tracking list is empty





NASA's NSSDC Master Catalog

Two Line Element Set (TLE):
1 21590U 90065F   17083.49448315 +.00000465 +00000-0 +26259-3 0  9996
2 21590 020.3028 087.6284 6968067 009.3063 358.8399 02.63122997231240
Source of the keplerian elements: AFSPC